This demonstration page uses our WeatherBlox Daily Observations layout. Learn more.

Left ArrowRight Arrow

Hourly Observations for May 14, 2017

Temp ( °F °C ) Dew Point ( °F °C ) Humidity (%) Winds ( mph kmh ) Pressure ( in mb ) Visibility ( mi km ) Precip ( " mm )
12:15 am 00:15 Clear 63 17 49 9.3 61 61 SSE 16 26 29.65 1004 10 16 N/A
12:35 am 00:35 Clear 63 17 49 9.3 61 61 SSE 16 26 29.65 1004 10 16 N/A
12:55 am 00:55 Clear 62 16.6 49 9.5 63 63 S 16 26 29.68 1005 10 16 N/A
1:15 am 01:15 Clear 62 16.4 49 9.5 64 64 SSE 17 28 29.68 1005 10 16 N/A
1:35 am 01:35 Clear 61 16.3 49 9.5 64 64 S 18 30 29.65 1004 10 16 N/A
1:55 am 01:55 Clear 61 16 49 9.6 66 66 S 17 28 29.65 1004 10 16 N/A
2:15 am 02:15 Clear 60 15.8 49 9.6 67 67 S 15 24 29.65 1004 10 16 N/A
2:35 am 02:35 Clear 60 15.7 49 9.7 68 68 S 15 24 29.65 1004 10 16 N/A
2:55 am 02:55 Clear 60 15.5 49 9.7 69 69 S 16 26 29.65 1004 10 16 N/A
3:15 am 03:15 Clear 60 15.3 49 9.6 69 69 S 15 24 29.65 1004 10 16 N/A
3:35 am 03:35 Clear 59 15.1 49 9.6 70 70 S 17 28 29.62 1003 10 16 N/A
3:55 am 03:55 Clear 59 15 49 9.6 70 70 S 16 26 29.62 1003 10 16 N/A
4:15 am 04:15 Clear 59 14.8 49 9.6 71 71 S 13 20 29.62 1003 10 16 N/A
4:35 am 04:35 Clear 58 14.6 49 9.6 72 72 S 12 19 29.62 1003 10 16 N/A
4:55 am 04:55 Clear 58 14.6 49 9.5 72 72 S 14 22 29.62 1003 10 16 N/A
5:15 am 05:15 Clear 59 14.8 49 9.5 71 71 S 15 24 29.65 1004 10 16 N/A
5:35 am 05:35 Clear 59 14.8 49 9.5 71 71 S 17 28 29.62 1003 10 16 N/A
5:55 am 05:55 Clear 58 14.7 49 9.3 70 70 S 16 26 29.62 1003 10 16 N/A
6:15 am 06:15 Clear 58 14.5 49 9.2 71 71 S 17 28 29.62 1003 10 16 N/A
6:35 am 06:35 Sunny 58 14.3 49 9.2 72 72 S 17 28 29.65 1004 10 16 N/A
6:55 am 06:55 Sunny 58 14.5 48 9.1 70 70 SSW 12 19 29.65 1004 10 16 N/A
7:15 am 07:15 Sunny 58 14.5 49 9.2 71 71 S 10 17 29.65 1004 10 16 N/A
7:35 am 07:35 Sunny 59 15 49 9.5 70 70 S 9 15 29.65 1004 10 16 N/A
7:55 am 07:55 Sunny 60 15.7 49 9.6 67 67 S 9 15 29.65 1004 10 16 N/A
8:15 am 08:15 Sunny 62 16.5 49 9.6 64 64 SSW 9 15 29.62 1003 10 16 N/A
8:35 am 08:35 Sunny 63 17.3 50 9.8 62 62 SSW 8 13 29.62 1003 10 16 N/A
8:55 am 08:55 Sunny 64 18 50 9.8 59 59 SW 7 11 29.65 1004 10 16 N/A
9:15 am 09:15 Sunny 65 18.5 50 9.8 57 57 W 6 9 29.65 1004 10 16 N/A
9:35 am 09:35 Sunny 67 19.7 50 10 54 54 WNW 7 11 29.65 1004 10 16 N/A
9:50 am 09:50 Sunny 69 20.6 50 10.1 51 51 NNW 12 19 29.62 1003 10 16 N/A
10:15 am 10:15 Sunny 71 21.4 51 10.5 50 50 N 13 20 29.62 1003 10 16 N/A
10:35 am 10:35 Sunny 71 21.9 51 10.7 49 49 N 14 22 29.65 1004 10 16 N/A
10:55 am 10:55 Sunny 73 23 51 10.8 46 46 N 18 30 29.65 1004 10 16 N/A
11:15 am 11:15 Sunny 75 23.8 52 10.9 44 44 N 20 31 29.65 1004 10 16 N/A
11:35 am 11:35 Sunny 75 24 53 11.4 45 45 NNE 16 26 29.65 1004 10 16 N/A
11:55 am 11:55 Sunny 77 24.8 52 11.1 42 42 NNE 16 26 29.62 1003 10 16 N/A
12:15 pm 12:15 Sunny 77 24.8 51 10.8 41 41 NNE 16 26 29.65 1004 10 16 N/A
12:35 pm 12:35 Sunny 78 25.3 52 11.1 41 41 NNE 13 20 29.65 1004 10 16 N/A
12:50 pm 12:50 Sunny 78 25.6 52 11.2 41 41 N 16 26 29.65 1004 10 16 N/A
1:15 pm 13:15 Sunny 79 26 52 10.9 39 39 N 13 20 29.65 1004 10 16 N/A
1:35 pm 13:35 Sunny 80 26.4 53 11.4 39 39 N 12 19 29.65 1004 10 16 N/A
1:55 pm 13:55 Sunny 80 26.6 52 11.2 38 38 NW 10 17 29.65 1004 10 16 N/A
2:15 pm 14:15 Sunny 80 26.8 53 11.7 39 39 N 13 20 29.65 1004 10 16 N/A
2:35 pm 14:35 Sunny 81 27 54 12.2 40 40 NNE 15 24 29.65 1004 10 16 N/A
2:55 pm 14:55 Sunny 82 27.7 52 11.3 36 36 N 15 24 29.65 1004 10 16 N/A
3:15 pm 15:15 Sunny 82 27.8 52 11.1 35 35 N 13 20 29.65 1004 10 16 N/A
3:35 pm 15:35 Sunny 82 27.9 53 11.4 36 36 N 13 20 29.65 1004 10 16 N/A
3:55 pm 15:55 Sunny 83 28.1 52 11.1 35 35 N 12 19 29.65 1004 10 16 N/A
4:15 pm 16:15 Sunny 82 28 51 10.8 34 34 N 13 20 29.65 1004 10 16 N/A
4:35 pm 16:35 Sunny 82 28 52 11.3 35 35 NNE 12 19 29.65 1004 10 16 N/A
4:55 pm 16:55 Sunny 83 28.4 52 11.2 34 34 NNE 15 24 29.62 1003 10 16 N/A
5:15 pm 17:15 Sunny 82 27.8 53 11.7 37 37 NE 13 20 29.65 1004 10 16 N/A
5:35 pm 17:35 Sunny 82 27.9 54 12.2 38 38 NE 10 17 29.65 1004 10 16 N/A
5:55 pm 17:55 Sunny 82 27.9 54 12.3 38 38 NE 9 15 29.65 1004 10 16 N/A
6:15 pm 18:15 Sunny 82 27.5 54 12.3 39 39 NNE 13 20 29.65 1004 10 16 N/A
6:35 pm 18:35 Sunny 81 27.1 54 12 39 39 NE 8 13 29.65 1004 10 16 N/A
6:55 pm 18:55 Sunny 80 26.9 53 11.9 39 39 NNE 9 15 29.65 1004 10 16 N/A
7:15 pm 19:15 Sunny 80 26.5 54 12.2 41 41 NE 12 19 29.65 1004 10 16 N/A
7:35 pm 19:35 Sunny 79 26.1 54 12.3 42 42 NE 12 19 29.65 1004 10 16 N/A
7:55 pm 19:55 Sunny 78 25.7 54 12.1 43 43 NE 10 17 29.65 1004 10 16 N/A
8:15 pm 20:15 Sunny 76 24.6 54 12.1 46 46 NE 9 15 29.65 1004 10 16 N/A
8:35 pm 20:35 Sunny 74 23.5 54 12.3 50 50 NNE 7 11 29.68 1005 10 16 N/A
8:55 pm 20:55 Clear 71 21.8 54 12.3 55 55 NNE 7 11 29.68 1005 10 16 N/A
9:15 pm 21:15 Clear 69 20.8 54 12.1 58 58 NNE 6 9 29.71 1006 10 16 N/A
9:35 pm 21:35 Clear 67 19.7 54 12 61 61 NE 10 17 29.71 1006 10 16 N/A
9:55 pm 21:55 Clear 67 19.4 54 12 62 62 NE 7 11 29.71 1006 10 16 N/A
10:15 pm 22:15 Clear 66 18.9 54 12.1 65 65 NE 9 15 29.71 1006 7 11 N/A
10:35 pm 22:35 Clear 67 19.2 55 12.5 65 65 ENE 8 13 29.71 1006 10 16 N/A
10:55 pm 22:55 Clear 66 18.8 54 12.2 66 66 ENE 8 13 29.74 1007 10 16 N/A
11:15 pm 23:15 Clear 67 19.7 55 12.5 63 63 E 8 13 29.74 1007 10 16 N/A
11:35 pm 23:35 Clear 65 18.5 54 12.2 67 67 E 7 11 29.74 1007 10 16 N/A
11:55 pm 23:55 Clear 64 17.6 54 12.1 70 70 E 7 11 29.77 1008 10 16 N/A

Powered by AerisWeather